CW7701 Weather Reports


time (UTC)temp
C
wind
direction
speed
KPH
gust
KPH
rain 1hr
cm
rain 24hr
cm
rain mn
cm
humidity
%
barometer
mb
20260901024530 27 314 0.0 3.2 0.00 0.58 0.58 81 1011.0
20260901023032 27 315 0.0 3.2 0.00 0.58 0.58 81 1010.9
20260901021536 27 315 0.0 4.8 0.00 0.58 0.58 80 1010.6
20260901020049 27 314 1.6 3.2 0.00 0.58 0.58 81 1010.5
20260901014526 27 315 1.6 4.8 0.00 0.58 0.58 81 1010.3
20260901013026 27 315 0.0 6.4 0.00 0.58 0.58 81 1010.2
20260901011535 27 314 1.6 4.8 0.00 0.58 0.58 81 1010.2
20260901010025 27 315 1.6 8.0 0.00 0.58 0.58 81 1009.9
20260901004524 27 315 1.6 8.0 0.00 0.58 0.58 81 1009.7
20260901003023 27 314 3.2 8.0 0.00 0.58 0.58 81 1009.7
20260901001526 27 309 3.2 8.0 0.00 0.58 0.58 82 1009.7
20260901000023 27 307 1.6 8.0 0.00 0.58 0.58 84 1009.8
20260831234522 26 306 1.6 8.0 0.00 0.58 0.58 86 1009.7
20260831233035 26 322 3.2 8.0 0.00 0.58 0.58 88 1009.5
20260831231521 26 318 1.6 8.0 0.00 0.58 0.58 89 1009.7
20260831230017 25 322 3.2 9.7 0.00 0.58 0.58 89 1009.9
20260831224517 25 312 3.2 9.7 0.00 0.58 0.58 90 1010.1
20260831223017 25 5 4.8 14.5 0.00 0.58 0.58 90 1010.3
20260831221516 25 327 3.2 8.0 0.00 0.58 0.58 90 1010.3
20260831220016 25 355 4.8 17.7 0.15 0.58 0.58 89 1010.5
20260831214517 25 50 1.6 8.0 0.28 0.58 0.58 88 1010.7
20260831213019 25 351 3.2 14.5 0.48 0.58 0.58 88 1011.0
20260831211511 25 284 11.3 20.9 0.58 0.58 0.58 87 1011.5
20260831210006 25 304 6.4 20.9 0.43 0.43 0.43 85 1012.0
20260831204505 26 305 9.7 19.3 0.30 0.30 0.30 80 1012.5
20260831203059 30 43 11.3 30.6 0.10 0.10 0.10 68 1012.2
20260831201559 36 60 8.0 22.5 0.00 0.00 0.00 49 1011.7
20260831200056 37 170 9.7 17.7 0.00 0.00 0.00 54 1011.0
20260831194628 36 148 4.8 14.5 0.00 0.00 0.00 56 1011.2
20260831193050 36 113 8.0 14.5 0.00 0.00 0.00 55 1011.6
20260831191544 36 138 3.2 11.3 0.00 0.00 0.00 54 1011.7
20260831190045 35 139 8.0 16.1 0.00 0.00 0.00 54 1011.8
20260831184605 35 207 3.2 9.7 0.00 0.00 0.00 54 1012.2
20260831183038 32 267 3.2 6.4 0.00 0.00 0.00 52 1012.3
20260831181530 30 306 3.2 6.4 0.00 0.00 0.00 58 1012.6
20260831180034 30 306 3.2 6.4 0.00 0.00 0.00 61 1012.6
20260831174526 29 346 3.2 6.4 0.00 0.00 0.00 62 1012.6
20260831173032 28 355 3.2 8.0 0.00 0.00 0.00 63 1012.7
20260831171523 28 77 3.2 12.9 0.00 0.00 0.00 68 1012.7
20260831170022 29 88 8.0 29.0 0.00 0.00 0.00 65 1012.8
20260831164521 30 79 9.7 22.5 0.00 0.00 0.00 61 1012.7
20260831163019 32 105 1.6 6.4 0.00 0.00 0.00 66 1012.2
20260831161517 32 105 1.6 6.4 0.00 0.00 0.00 65 1011.9
20260831160024 32 103 3.2 6.4 0.00 0.00 0.00 66 1012.0
20260831154515 32 102 0.0 1.6 0.00 0.00 0.00 65 1012.1
20260831153005 31 102 1.6 4.8 0.00 0.00 0.00 63 1012.0
20260831151502 31 102 1.6 4.8 0.00 0.00 0.00 63 1011.9
20260831150057 30 102 1.6 4.8 0.00 0.00 0.00 64 1011.9
20260831144608 30 102 0.0 1.6 0.00 0.00 0.00 67 1011.8
20260831143052 29 102 0.0 3.2 0.00 0.00 0.00 68 1011.6
20260831141550 28 102 1.6 4.8 0.00 0.00 0.00 68 1011.4
20260831140045 28 102 3.2 6.4 0.00 0.00 0.00 70 1011.3
20260831134543 28 102 0.0 3.2 0.00 0.00 0.00 71 1011.2
20260831133038 28 102 1.6 4.8 0.00 0.00 0.00 70 1011.0
20260831131540 28 103 1.6 6.4 0.00 0.00 0.00 71 1010.8
20260831130045 27 355 1.6 4.8 0.00 0.00 0.00 72 1010.8
20260831124536 27 355 1.6 4.8 0.00 0.00 0.00 72 1010.6
20260831123035 27 355 1.6 4.8 0.00 0.00 0.00 72 1010.5
20260831121537 27 355 1.6 4.8 0.00 0.00 0.00 72 1010.4
20260831120032 27 355 0.0 3.2 0.00 0.00 0.00 72 1010.3
20260831114534 28 355 1.6 8.0 0.00 0.00 0.00 71 1010.2
20260831113032 28 355 1.6 3.2 0.00 0.00 0.00 71 1010.3
20260831111540 28 355 3.2 6.4 0.00 0.00 0.00 72 1010.3
20260831104547 28 355 1.6 6.4 0.00 0.00 0.00 69 1009.9
20260831103049 28 350 3.2 9.7 0.00 0.00 0.00 68 1009.8
20260831101545 28 254 1.6 4.8 0.00 0.00 0.00 68 1010.0
20260831100043 28 254 0.0 4.8 0.00 0.00 0.00 68 1010.0
20260831094541 28 254 1.6 6.4 0.00 0.00 0.00 68 1010.1
20260831093040 28 254 0.0 4.8 0.00 0.00 0.00 68 1010.1
20260831091538 28 254 1.6 6.4 0.00 0.00 0.00 68 1010.4
20260831090033 28 254 1.6 6.4 0.00 0.00 0.00 69 1010.5
20260831084540 28 254 1.6 6.4 0.00 0.00 0.00 69 1010.7
20260831083030 28 254 0.0 4.8 0.00 0.00 0.00 68 1010.8
20260831081530 28 254 1.6 4.8 0.00 0.00 0.00 68 1010.8
20260831080028 29 254 1.6 6.4 0.00 0.00 0.00 68 1010.8
20260831074537 29 254 3.2 8.0 0.00 0.00 0.00 67 1010.7
20260831073056 29 253 3.2 6.4 0.00 0.00 0.00 68 1010.7
20260831071521 29 253 3.2 8.0 0.00 0.00 0.00 69 1010.7
20260831070026 29 248 1.6 6.4 0.00 0.00 0.00 68 1010.8
20260831064530 29 248 1.6 6.4 0.00 0.00 0.00 67 1010.7
20260831063021 30 247 3.2 6.4 0.00 0.00 0.00 67 1010.8
20260831061525 30 247 1.6 6.4 0.00 0.00 0.00 66 1010.9
20260831060018 30 247 1.6 3.2 0.00 0.00 0.00 65 1010.9
20260831054517 30 247 1.6 4.8 0.00 0.00 0.00 65 1011.0
20260831053022 30 247 0.0 3.2 0.00 0.00 0.00 65 1011.0
20260831051517 30 247 1.6 6.4 0.00 0.00 0.00 65 1010.9
20260831050034 30 247 1.6 6.4 0.00 0.00 0.00 65 1010.9
20260831044516 30 247 1.6 4.8 0.00 0.00 0.00 65 1010.9
20260831043015 30 247 1.6 3.2 0.00 0.00 0.00 65 1010.9
20260831041514 30 247 1.6 3.2 0.00 0.00 0.00 65 1010.8
20260831040037 31 247 1.6 3.2 0.00 0.00 0.00 65 1010.5
20260831034512 31 247 1.6 8.0 0.00 0.00 0.00 63 1010.3
20260831033018 31 246 1.6 6.4 0.00 0.00 0.00 60 1010.1
20260831031511 31 245 1.6 6.4 0.00 0.00 0.00 59 1009.8
20260831030023 31 244 0.0 4.8 0.00 0.00 0.00 61 1009.6